Regional Weather Roundup
Issued by NWS

Home | Current Version | Previous Version | Text Only | Print | Product List | Glossary Off
Versions: 1 2 3 4 5 6 7 8 9 10 11 12 13 14 15 16 17 18 19 20 21 22 23 24 25 26 27 28 29 30 31 32 33 34 35 36 37 38 39 40 41 42 43 44 45 46 47 48 49 50

000
ASUS43 KLMK 241710
RWRKY
KENTUCKY REGIONAL WEATHER ROUNDUP
NATIONAL WEATHER SERVICE LOUISVILLE KY
1200 PM EST FRI FEB 24 2017

NOTE "FAIR" INDICATES FEW OR NO CLOUDS BELOW 12,000 FEET
WITH NO SIGNIFICANT WEATHER AND/OR OBSTRUCTIONS TO VISIBILITY.

KYZ001>023-026-027-061>063-070>075-241800-
WESTERN AND SOUTH CENTRAL KENTUCKY

CITY           SKY/WX    TMP DP  RH WIND       PRES   REMARKS
PADUCAH        MOSUNNY   72  51  47 SW22G31   29.61S
HENDERSON      MOSUNNY   73  55  53 SW23G33   29.59S
OWENSBORO      MOSUNNY   74  56  53 S22G31    29.61F
HOPKINSVILLE   SUNNY     76  55  48 S22G40    29.65F
BOWLING GREEN  MOSUNNY   75  56  51 S23G37    29.69F
GLASGOW        MOSUNNY   74  55  52 S20G31    29.71F
$$

KYZ024-025-028>034-038-045-046-053-241800-
NORTH CENTRAL KENTUCKY

CITY           SKY/WX    TMP DP  RH WIND       PRES   REMARKS
LOUISVILLE/SDF CLOUDY    76  52  43 S21G31    29.63F
LOUISVILLE/LOU MOSUNNY   76  55  48 S18G29    29.64F
FORT KNOX      MOSUNNY   74  54  50 S22G36    29.64F
$$

KYZ035>037-039>044-047>052-055>060-089>105-241800-
NORTHEAST KENTUCKY

CITY           SKY/WX    TMP DP  RH WIND       PRES   REMARKS
LEXINGTON      MOSUNNY   75  52  44 SW26G37   29.71F
COVINGTON      PTSUNNY   72  55  55 SW17G37   29.65F
FRANKFORT      CLOUDY    74  53  48 SW25G40   29.68F
$$

KYZ054-064>069-076>088-106>120-241800-
SOUTHEAST KENTUCKY

CITY           SKY/WX    TMP DP  RH WIND       PRES   REMARKS
JACKSON        SUNNY     73  50  44 S8G23     29.79F
LONDON         MOSUNNY   73  49  42 SW15G28   29.79F
SOMERSET       MOSUNNY   72  52  49 S13G22    29.79F
MIDDLESBORO    SUNNY     70  53  54 S10G21    29.85F
MONTICELLO     SUNNY     75  55  49 SW17G28   29.78F
$$




USA.gov is the U.S. government's official web portal to all federal, state and local government web resources and services.